This is the latest recevied weather packets stored in our database for station/object KE6JJJ-1. If no packets are shown the sender has not sent any weather packets the latest 10 day(s).
| Time | Temp. | Humidity | Pressure | Rain* | Wind** | Luminosity | Snow |
|---|---|---|---|---|---|---|---|
| 1788604503 | 14.44° C | 87% | 1013.9 hPa | 0 mm | - | 0 W/m² | - |
| 1788602704 | 15° C | 87% | 1014.1 hPa | 0 mm | - | 0 W/m² | - |
| 1788600903 | 15.56° C | 88% | 1013.9 hPa | 0 mm | - | 0 W/m² | - |
| 1788599103 | 15.56° C | 88% | 1014.3 hPa | 0 mm | - | 0 W/m² | - |
| 1788597303 | 15.56° C | 87% | 1014.4 hPa | 0 mm | - | 0 W/m² | - |
| 1788595504 | 15.56° C | 87% | 1014.4 hPa | 0 mm | - | 0 W/m² | - |
| 1788591904 | 15.56° C | 86% | 1014.3 hPa | 0 mm | - | 0 W/m² | - |
| 1788590110 | 16.11° C | 85% | 1014 hPa | 0 mm | - | 0 W/m² | - |
| 1788588303 | 16.11° C | 84% | 1014.2 hPa | 0 mm | - | 0 W/m² | - |
| 1788586503 | 16.67° C | 82% | 1014.3 hPa | 0 mm | - | 0 W/m² | - |
| 1788584703 | 16.67° C | 78% | 1014.5 hPa | 0 mm | - | 0 W/m² | - |
| 1788582903 | 16.67° C | 77% | 1014.5 hPa | 0 mm | - | 0 W/m² | - |
| 1788581107 | 16.67° C | 77% | 1014 hPa | 0 mm | - | 0 W/m² | - |
| 1788579314 | 17.22° C | 77% | 1013.9 hPa | 0 mm | - | 0 W/m² | - |
| 1788577503 | 17.22° C | 77% | 1013.7 hPa | 0 mm | - | 0 W/m² | - |
| 1788575703 | 17.78° C | 77% | 1013.6 hPa | 0 mm | - | 5 W/m² | - |
| 1788573904 | 18.33° C | 75% | 1013.7 hPa | 0 mm | - | 32 W/m² | - |
| 1788572103 | 18.89° C | 74% | 1013.7 hPa | 0 mm | - | 125 W/m² | - |
| 1788570303 | 20° C | 69% | 1013.7 hPa | 0 mm | - | 232 W/m² | - |
| 1788568504 | 20° C | 67% | 1013.4 hPa | 0 mm | - | 339 W/m² | - |
| 1788566703 | 21.11° C | 66% | 1013.7 hPa | 0 mm | - | 432 W/m² | - |
| 1788564903 | 21.11° C | 67% | 1013.7 hPa | 0 mm | - | 521 W/m² | - |
| 1788563103 | 21.11° C | 67% | 1013.9 hPa | 0 mm | - | 603 W/m² | - |
| 1788561303 | 21.11° C | 66% | 1014.1 hPa | 0 mm | - | 671 W/m² | - |
| 1788559503 | 21.11° C | 65% | 1014.1 hPa | 0 mm | - | 731 W/m² | - |
* Rain latest hour (hover to see other rain measurements)
** Current wind speed in m/s (hover to see current wind gust speed)